Hlavní strana
METAR-TAF:

METAR-TAF

Letiště :

Moultrie Municipal Airport

Moultrie, Georgie, Spojené státy americké

zeměpisná šířka: 31-05-05N, zeměpisná délka: 083-48-11W, výška: 90 m

Aktuální stav počasí

Zpráva byla vytvořena před 31 minutami, v 01:55 UTC
Jižní vítr 5 kt
Teplota 16°C
Vlhkost vzduchu 88%
Tlak 1023 hPa
Viditelnost: 16.1 km
Jasno

METAR: KMGR 190155Z AUTO 19005KT 10SM CLR 16/14 A3020 RMK AO2

Čas: 21:26 (02:26 UTC)


TAF: chybějící

Stav a předpovědi počasí z více než 4 000 letišť (zprávy METAR a TAF).

Červené a žluté tečky na mapě představují dostupné meteorologické stanice.

Když kurzor umístíte na tečku, zobrazí se název stanice.

Pak kliknutím zobrazíte stav a předpověď počasí.

Chcete-li změnit mapu, kliknutím na zelené tlačítko se znaménkem +mapu přiblížíte, kliknutím na zelené tlačítko se znaménkem – mapu oddálíte a kliknutím na zelené šipky přejdete na sousední mapy.


METAR-TAF: